Location: Brno
(49.2000°N, 16.6330°E)
Time: 06:29:38
(UTC+02:00)

X-37B - Pass Details

Date: 19 June 2021
Orbit: 383 x 392 km, 45.0° (Epoch: 01 July)

Event Time Altitude Azimuth Distance (km) Brightness Sun altitude
Exits shadow 01:52:17 27° 133° (SE) 771 1.8 -16.3°
Drops below altitude 10° 01:54:15 10° 104° (ESE) 1,406 3.4 -16.2°
Sets 01:56:25 0° 95° (E) 2,262 4.6 -16.1°
